Hourly Weather Kozly

Today, 22 October, Thursday

Time Temperature Precipitation Wind Pressure Humidity
00:00 +5°C° 0 mm 3 mps 753 mmHg 95%
01:00 +5°C° 0 mm 3 mps 753 mmHg 95%
02:00 +5°C° 0 mm 3 mps 752 mmHg 96%
03:00 +5°C° 0.2 mm 3 mps 752 mmHg 95%
04:00 +6°C° 0.2 mm 4 mps 751 mmHg 94%
05:00 +6°C° 0.2 mm 4 mps 750 mmHg 94%
06:00 +6°C° 1.3 mm 4 mps 750 mmHg 94%
07:00 +7°C° 1.3 mm 5 mps 749 mmHg 94%
08:00 +7°C° 1.3 mm 5 mps 748 mmHg 94%
09:00 +7°C° 0.4 mm 5 mps 748 mmHg 93%
10:00 +8°C° 0.4 mm 5 mps 747 mmHg 92%
11:00 +8°C° 0.4 mm 5 mps 747 mmHg 91%
12:00 +9°C° 0.1 mm 5 mps 746 mmHg 89%
13:00 +10°C° 0.1 mm 5 mps 746 mmHg 88%
14:00 +10°C° 0.1 mm 5 mps 745 mmHg 86%
15:00 +11°C° 0.2 mm 6 mps 745 mmHg 86%
16:00 +11°C° 0.2 mm 6 mps 744 mmHg 87%
17:00 +11°C° 0.2 mm 6 mps 743 mmHg 87%
18:00 +11°C° 0.5 mm 7 mps 743 mmHg 86%
19:00 +11°C° 0.5 mm 7 mps 743 mmHg 85%
20:00 +12°C° 0.5 mm 8 mps 744 mmHg 85%
21:00 +11°C° 0 mm 7 mps 744 mmHg 83%
22:00 +11°C° 0 mm 7 mps 745 mmHg 82%
23:00 +11°C° 0 mm 7 mps 745 mmHg 81%

Tomorrow, 23 October, Friday

Time Temperature Precipitation Wind Pressure Humidity
00:00 +11°C° 0 mm 6 mps 746 mmHg 82%
01:00 +11°C° 0 mm 6 mps 746 mmHg 84%
02:00 +11°C° 0 mm 6 mps 747 mmHg 85%
03:00 +12°C° 0 mm 5 mps 747 mmHg 85%
04:00 +10°C° 0 mm 5 mps 747 mmHg 86%
05:00 +9°C° 0 mm 5 mps 747 mmHg 86%
06:00 +9°C° 0 mm 5 mps 747 mmHg 86%
07:00 +10°C° 0 mm 5 mps 746 mmHg 86%
08:00 +10°C° 0 mm 5 mps 746 mmHg 86%
09:00 +10°C° 0 mm 5 mps 746 mmHg 84%
10:00 +12°C° 0 mm 5 mps 746 mmHg 82%
11:00 +13°C° 0 mm 5 mps 746 mmHg 81%
12:00 +13°C° 0.5 mm 5 mps 745 mmHg 79%
13:00 +13°C° 0.5 mm 6 mps 745 mmHg 78%
14:00 +13°C° 0.5 mm 6 mps 744 mmHg 77%
15:00 +11°C° 0.4 mm 6 mps 744 mmHg 78%
16:00 +12°C° 0.4 mm 5 mps 744 mmHg 79%
17:00 +11°C° 0.4 mm 4 mps 744 mmHg 80%
18:00 +10°C° 0 mm 5 mps 745 mmHg 81%
19:00 +9°C° 0 mm 5 mps 746 mmHg 82%
20:00 +9°C° 0 mm 5 mps 746 mmHg 83%
21:00 +10°C° 0 mm 4 mps 747 mmHg 85%
22:00 +8°C° 0 mm 4 mps 747 mmHg 86%
23:00 +9°C° 0 mm 3 mps 748 mmHg 87%

Day after tomorrow, 24 October, Saturday

Time Temperature Precipitation Wind Pressure Humidity
00:00 +8°C° 0 mm 3 mps 748 mmHg 88%
01:00 +8°C° 0 mm 3 mps 749 mmHg 90%
02:00 +8°C° 0 mm 2 mps 749 mmHg 91%
03:00 +8°C° 0.1 mm 2 mps 749 mmHg 92%
04:00 +8°C° 0.1 mm 2 mps 749 mmHg 92%
05:00 +8°C° 0.1 mm 2 mps 749 mmHg 93%
06:00 +8°C° 0.1 mm 2 mps 749 mmHg 93%
07:00 +8°C° 0.1 mm 2 mps 750 mmHg 93%
08:00 +8°C° 0.1 mm 2 mps 750 mmHg 92%
09:00 +8°C° 0 mm 2 mps 750 mmHg 90%
10:00 +8°C° 0 mm 3 mps 750 mmHg 88%
11:00 +9°C° 0 mm 3 mps 750 mmHg 85%
12:00 +9°C° 0 mm 3 mps 750 mmHg 82%
13:00 +10°C° 0 mm 3 mps 750 mmHg 79%
14:00 +10°C° 0 mm 3 mps 750 mmHg 76%
15:00 +9°C° 0 mm 3 mps 750 mmHg 81%
16:00 +8°C° 0 mm 2 mps 750 mmHg 86%
17:00 +8°C° 0 mm 2 mps 750 mmHg 91%
18:00 +7°C° 0 mm 2 mps 750 mmHg 92%
19:00 +7°C° 0 mm 2 mps 750 mmHg 94%
20:00 +7°C° 0 mm 2 mps 750 mmHg 95%
21:00 +7°C° 0 mm 2 mps 750 mmHg 95%
22:00 +7°C° 0 mm 2 mps 749 mmHg 95%
23:00 +8°C° 0 mm 2 mps 749 mmHg 94%

, 25 October, Sunday

Time Temperature Precipitation Wind Pressure Humidity
00:00 +8°C° 0.4 mm 3 mps 749 mmHg 93%
01:00 +8°C° 0.4 mm 3 mps 749 mmHg 92%
02:00 +8°C° 0.4 mm 4 mps 749 mmHg 91%
03:00 +8°C° 0 mm 4 mps 750 mmHg 88%
04:00 +7°C° 0 mm 4 mps 750 mmHg 85%
05:00 +7°C° 0 mm 4 mps 750 mmHg 82%
06:00 +7°C° 0 mm 4 mps 751 mmHg 85%
07:00 +6°C° 0 mm 4 mps 751 mmHg 87%
08:00 +7°C° 0 mm 3 mps 752 mmHg 89%
09:00 +7°C° 0 mm 3 mps 752 mmHg 85%
10:00 +8°C° 0 mm 3 mps 753 mmHg 80%
11:00 +9°C° 0 mm 3 mps 754 mmHg 76%
12:00 +10°C° 0 mm 3 mps 754 mmHg 75%
13:00 +10°C° 0 mm 3 mps 755 mmHg 75%
14:00 +10°C° 0 mm 2 mps 755 mmHg 74%
15:00 +9°C° 0 mm 2 mps 755 mmHg 79%
16:00 +9°C° 0 mm 1 mps 756 mmHg 85%
17:00 +8°C° 0 mm 1 mps 756 mmHg 90%
18:00 +8°C° 0 mm 1 mps 757 mmHg 91%
19:00 +8°C° 0 mm 1 mps 757 mmHg 92%
20:00 +8°C° 0 mm 1 mps 758 mmHg 93%
21:00 +7°C° 0 mm 1 mps 758 mmHg 94%
22:00 +7°C° 0 mm 1 mps 758 mmHg 94%
23:00 +7°C° 0 mm 1 mps 758 mmHg 95%

25 October, Sunday

Time Temperature Precipitation Wind Pressure Humidity
00:00 +8°C° 0.4 mm 3 mps 749 mmHg 93%
01:00 +8°C° 0.4 mm 3 mps 749 mmHg 92%
02:00 +8°C° 0.4 mm 4 mps 749 mmHg 91%
03:00 +8°C° 0 mm 4 mps 750 mmHg 88%
04:00 +7°C° 0 mm 4 mps 750 mmHg 85%
05:00 +7°C° 0 mm 4 mps 750 mmHg 82%
06:00 +7°C° 0 mm 4 mps 751 mmHg 85%
07:00 +6°C° 0 mm 4 mps 751 mmHg 87%
08:00 +7°C° 0 mm 3 mps 752 mmHg 89%
09:00 +7°C° 0 mm 3 mps 752 mmHg 85%
10:00 +8°C° 0 mm 3 mps 753 mmHg 80%
11:00 +9°C° 0 mm 3 mps 754 mmHg 76%
12:00 +10°C° 0 mm 3 mps 754 mmHg 75%
13:00 +10°C° 0 mm 3 mps 755 mmHg 75%
14:00 +10°C° 0 mm 2 mps 755 mmHg 74%
15:00 +9°C° 0 mm 2 mps 755 mmHg 79%
16:00 +9°C° 0 mm 1 mps 756 mmHg 85%
17:00 +8°C° 0 mm 1 mps 756 mmHg 90%
18:00 +8°C° 0 mm 1 mps 757 mmHg 91%
19:00 +8°C° 0 mm 1 mps 757 mmHg 92%
20:00 +8°C° 0 mm 1 mps 758 mmHg 93%
21:00 +7°C° 0 mm 1 mps 758 mmHg 94%
22:00 +7°C° 0 mm 1 mps 758 mmHg 94%
23:00 +7°C° 0 mm 1 mps 758 mmHg 95%

26 October, Monday

Time Temperature Precipitation Wind Pressure Humidity
00:00 +6°C° 0 mm 1 mps 758 mmHg 95%
01:00 +6°C° 0 mm 1 mps 759 mmHg 96%
02:00 +5°C° 0 mm 2 mps 759 mmHg 96%
03:00 +5°C° 0 mm 2 mps 759 mmHg 96%
04:00 +5°C° 0 mm 2 mps 759 mmHg 95%
05:00 +5°C° 0 mm 2 mps 759 mmHg 95%
06:00 +5°C° 0 mm 2 mps 759 mmHg 95%
07:00 +5°C° 0 mm 2 mps 759 mmHg 95%
08:00 +5°C° 0 mm 2 mps 759 mmHg 94%
09:00 +6°C° 0 mm 2 mps 759 mmHg 90%
10:00 +7°C° 0 mm 3 mps 759 mmHg 86%
11:00 +9°C° 0 mm 3 mps 759 mmHg 82%
12:00 +9°C° 0 mm 3 mps 759 mmHg 80%
13:00 +10°C° 0 mm 3 mps 759 mmHg 78%
14:00 +11°C° 0 mm 3 mps 759 mmHg 75%
15:00 +10°C° 0 mm 3 mps 759 mmHg 81%
16:00 +8°C° 0 mm 2 mps 759 mmHg 86%
17:00 +7°C° 0 mm 2 mps 759 mmHg 91%
18:00 +7°C° 0 mm 2 mps 759 mmHg 92%
19:00 +7°C° 0 mm 3 mps 759 mmHg 92%
20:00 +7°C° 0 mm 3 mps 759 mmHg 93%
21:00 +7°C° 0 mm 3 mps 759 mmHg 93%
22:00 +7°C° 0 mm 3 mps 759 mmHg 93%
23:00 +7°C° 0 mm 3 mps 759 mmHg 92%

27 October, Tuesday

Time Temperature Precipitation Wind Pressure Humidity
00:00 +5°C° 0 mm 3 mps 759 mmHg 92%
01:00 +5°C° 0 mm 3 mps 759 mmHg 92%
02:00 +5°C° 0 mm 3 mps 758 mmHg 92%
03:00 +5°C° 0 mm 3 mps 758 mmHg 93%
04:00 +5°C° 0 mm 3 mps 758 mmHg 93%
05:00 +5°C° 0 mm 3 mps 758 mmHg 93%
06:00 +5°C° 0 mm 3 mps 758 mmHg 92%
07:00 +5°C° 0 mm 3 mps 758 mmHg 92%
08:00 +5°C° 0 mm 4 mps 757 mmHg 92%
09:00 +6°C° 0 mm 4 mps 757 mmHg 88%
10:00 +7°C° 0 mm 4 mps 757 mmHg 85%
11:00 +7°C° 0 mm 4 mps 757 mmHg 82%
12:00 +8°C° 0 mm 4 mps 757 mmHg 82%
13:00 +8°C° 0 mm 4 mps 757 mmHg 81%
14:00 +8°C° 0 mm 4 mps 757 mmHg 81%
15:00 +8°C° 0.1 mm 4 mps 757 mmHg 83%
16:00 +8°C° 0.1 mm 4 mps 756 mmHg 86%
17:00 +8°C° 0.1 mm 4 mps 756 mmHg 88%
18:00 +8°C° 0.1 mm 4 mps 756 mmHg 88%
19:00 +8°C° 0.1 mm 4 mps 756 mmHg 89%
20:00 +8°C° 0.1 mm 4 mps 757 mmHg 89%
21:00 +9°C° 0 mm 3 mps 757 mmHg 90%
22:00 +9°C° 0 mm 3 mps 757 mmHg 91%
23:00 +9°C° 0 mm 3 mps 757 mmHg 92%
Show more